Location: La Savane
(18.0962°N, 63.0646°W)
Time: 17:41:06
(UTC+00:00)

Cosmos 2322 Rocket - Pass Details

Date: 29 October 2020
Orbit: 832 x 851 km, 71.0° (Epoch: 24 November)

Event Time Altitude Azimuth Distance (km) Brightness Sun altitude
Rises 23:00:35 0° 175° (S) 3,391 5.4 -19.3°
Reaches altitude 10° 23:03:15 10° 165° (SSE) 2,461 4.6 -20.0°
Enters shadow 23:07:10 30° 125° (SE) 1,466 3.0 -20.9°
